Location: Strada George Coșbuc
(47.6577°N, 23.5639°E)
Time: 20:58:35
(UTC+03:00)

ISS - Pass Details

Date: 31 October 2017
Orbit: 401 x 408 km, 51.6° (Epoch: 21 October)

Event Time Altitude Azimuth Distance (km) Brightness Sun altitude
Exits shadow 06:02:26 - 218° (SW) 2,057 -0.5 -11.6°
Reaches altitude 10° 06:04:00 10° 210° (SSW) 1,446 -1.2 -11.3°
Maximum altitude 06:06:58 33° 144° (SE) 695 -2.2 -10.8°
Drops below altitude 10° 06:09:56 10° 78° (ENE) 1,453 0.2 -10.3°
Sets 06:12:07 0° 69° (ENE) 2,315 1.1 -10.0°
